Location: Clayton (historical)
(34.0300°N, 118.0259°W)
Time: 23:23:28
(UTC+00:00)

Envisat - Pass Details

Date: 26 January 2021
Orbit: 764 x 766 km, 98.1° (Epoch: 06 March)

Event Time Altitude Azimuth Distance (km) Brightness Sun altitude
Rises 14:00:16 0° 5° (N) 3,236 6.1 -11.2°
Reaches altitude 10° 14:02:38 10° 360° (N) 2,306 5.3 -10.7°
Maximum altitude 14:07:30 48° 287° (WNW) 989 3.2 -9.7°
Drops below altitude 10° 14:12:21 10° 213° (SSW) 2,292 5.3 -8.7°
Sets 14:14:42 0° 208° (SSW) 3,214 6.1 -8.3°
